Flag for Germany Weather past 2 weeks in Wesseling, North Rhine-Westphalia, Germany

Now
61 °F

Passing clouds.


Feels Like: 61 °F
Forecast: 55 / 72 °F
Wind: 2 mph from Northeast

Location: Koeln / Bonn

Current Time: Sep 2, 2014 at 9:22:43 PM

Latest Report: Sep 2, 2014 at 9:00 PM


Visibility: 16 mi

Pressure: 30.19 "Hg

Humidity: 87%

Dew point: 57 °F

Location of WesselingLocation

Historic Weather in Wesseling — Graph

°F

Wesseling temperature yesterday

Maximum temperature yesterday: 65 °F (at 2:00 PM)
Minimum temperature yesterday: 52 °F (at 1:00 AM)
Average temperature yesterday: 58 °F

Past Weeks' High & Low Weather Summary

 TemperatureHumidityPressure
High74 °F (Aug 28, 2:00 PM)99% (Aug 27, 7:00 AM)30.17 "Hg (Aug 27, 7:00 AM)
Low45 °F (Aug 20, 6:00 AM)45% (Aug 20, 4:00 PM)29.61 "Hg (Aug 26, 6:00 AM)
Average58 °F83%29.97 "Hg
* Reported Aug 18 8:00 PM — Sep 2 8:00 PM, Wesseling, Weather by CustomWeather, © 2014

Note: Actual official high and low records may vary slightly from our data, if they occured in-between our weather recording intervals... More about our weather records

Advertising

Wesseling weather history for previous 24 hours

 ConditionsComfort  
Time TempWeatherWind HumidityBarometerVisibility
8:00 PM
Sep 2
63 °FPartly sunny.2 mph82%30.17 "Hg19 mi
7:00 PM65 °FOvercast.3 mph75%30.16 "Hg31 mi
6:00 PM67 °FOvercast.5 mph71%30.16 "Hg31 mi
5:00 PM67 °FOvercast.5 mph71%30.16 "Hg37 mi
4:00 PM68 °FOvercast.3 mph65%30.15 "Hg31 mi
3:00 PM68 °FOvercast.3 mph61%30.16 "Hg31 mi
2:00 PM67 °FScattered clouds.3 mph57%30.16 "Hg28 mi
1:00 PM67 °FScattered clouds.3 mph61%30.16 "Hg22 mi
12:00 PM65 °FPassing clouds.3 mph67%30.17 "Hg16 mi
11:00 AM62 °FPassing clouds.1 mph76%30.17 "Hg12 mi
10:00 AM58 °FPassing clouds.1 mph88%30.17 "Hg6 mi
9:00 AM54 °FFog.2 mph94%30.17 "Hg7 mi
8:00 AM48 °FPassing clouds.1 mph99%30.17 "Hg5 mi
7:00 AM48 °FFog.1 mph99%30.17 "Hg4 mi
6:00 AM49 °FFog.1 mph99%30.14 "Hg9 mi
5:00 AM50 °FFog.1 mph99%30.15 "Hg10 mi
4:00 AM51 °FFog.2 mph99%30.15 "Hg9 mi
3:00 AM51 °FFog.2 mph98%30.15 "Hg11 mi
2:00 AM52 °FFog.1 mph97%30.15 "Hg12 mi
1:00 AM54 °FFog.2 mph96%30.15 "Hg16 mi
12:00 AM54 °FFog.1 mph95%30.15 "Hg19 mi
11:00 PM
Sep 1
56 °FFog.2 mph95%30.14 "Hg19 mi
10:00 PM57 °FOvercast.1 mph92%30.14 "Hg19 mi
9:00 PM58 °FOvercast.1 mph92%30.14 "Hg25 mi
Weather by CustomWeather, © 2014

See weather overviewHow to use our weather pages